Location: Amsterdam
(30.7274°N, 84.4357°W)
Time: 03:42:35
(UTC+00:00)

Courier 1B Rocket - Pass Details

Date: 13 February 2026
Orbit: 920 x 1201 km, 28.2° (Epoch: 7 March)

Event Time Altitude Azimuth Distance (km) Brightness Sun altitude
Rises 05:10:37 0° 269° (W) 3,727 - -70.2°
Reaches altitude 10° 05:13:14 10° 267° (W) 2,816 - -70.5°
Maximum altitude 05:20:07 73° 184° (S) 1,131 - -71.1°
Drops below altitude 10° 05:27:33 10° 101° (E) 3,023 - -71.7°
Sets 05:30:26 0° 100° (E) 4,017 - -71.9°
